Weather Roundup
Issued by NWS Springfield, MO

Home | Current Version | Previous Version | Text Only | Print | Product List | Glossary On
Versions: 1 2 3 4 5 6 7 8 9 10 11 12 13 14 15 16 17 18 19 20 21 22 23 24 25 26 27 28 29 30 31 32 33 34 35 36 37 38 39 40 41 42 43 44 45 46 47 48 49 50
000
NZUS99 KSGF 200007
HRRSGF

HOURLY WEATHER
NATIONAL WEATHER SERVICE SPRINGFIELD MO
600 PM CST SUN FEB 19 2017

......SGF CWA......

CITY           SKY/WX    TMP DP  RH WIND       PRES   REMARKS
SPRINGFIELD    CLEAR     69  56  62 SE10      29.94R
6HR MIN TEMP:  69; 6HR MAX TEMP:  75;

JOPLIN         CLEAR     72  49  44 S13       29.91R
6HR MIN TEMP:  71; 6HR MAX TEMP:  78;

WEST PLAINS    CLEAR     65  56  72 S6        30.02S
6HR MIN TEMP:  61; 6HR MAX TEMP:  67;

ROLLA          CLEAR     67  47  48 SE9       29.97R
6HR MIN TEMP:  67; 6HR MAX TEMP:  76;

OSAGE BEACH    CLEAR     71  54  54 S7        29.96R
BRANSON        PTCLDY    68  55  64 SE13      29.98R

......SURROUNDING SGF CWA......

CITY           SKY/WX    TMP DP  RH WIND       PRES   REMARKS
CHANUTE        MOCLDY    69  55  60 S13       29.90R
PARSONS        PTCLDY    69  56  62 S12       29.91R
COFFEYVILLE    CLOUDY    69  57  65 S10       29.91R
EMPORIA        CLOUDY    62  54  74 S12       29.86S
GROVE OK       MOCLDY    72  57  60 S7        29.93R
ROGERS AR      PTCLDY    70  55  59 S12       29.96R
SILOAM SPRINGS CLOUDY    70  55  60 SE9       29.94S
HARRISON AR    CLEAR     66  55  67 SE10      29.98R
NEAR YELLVILLE PTCLDY    68  52  56 SE7       29.97S

......KANSAS AND MISSOURI......

CITY           SKY/WX    TMP DP  RH WIND       PRES   REMARKS
KANSAS CTY INT CLOUDY    67  54  63 S8        29.88R
DOWNTOWN KC    CLEAR     72  55  55 S8G17     29.87R
COLUMBIA       CLEAR     71  46  40 SE7       29.95S
SEDALIA        CLEAR     71  50  47 S7        29.93R
ST JOSEPH      PTCLDY    69  55  60 S9        29.86S
ST LOUIS       PTCLDY    66  51  58 SE12      30.01F
SPIRIT OF STL  CLEAR     67  53  61 E8        29.99F
KIRKSVILLE     PTCLDY    63  47  55 SE8       29.94S
WICHITA        CLOUDY    63  55  75 SE3       29.83S
TOPEKA         PTCLDY    64  55  72 CALM      29.86F
OLATHE         CLEAR     69  55  60 S8        29.88S

......TENNESSEE......

CITY           SKY/WX    TMP DP  RH WIND       PRES   REMARKS
MEMPHIS        PTCLDY    72  52  49 SE5       30.04S
NASHVILLE      PTCLDY    63  49  60 E5        30.11F

......ARKANSAS.......

CITY           SKY/WX    TMP DP  RH WIND       PRES   REMARKS
FAYETTEVILLE   MOCLDY    68  58  70 S9        29.96R
FT SMITH       CLOUDY    71  58  63 E9        29.93R
LITTLE ROCK    PTCLDY    70  56  61 SE9       29.99S

......OKLAHOMA.......

CITY           SKY/WX    TMP DP  RH WIND       PRES   REMARKS
TULSA          CLOUDY    70  60  70 S12       29.88S
MCALESTER      CLOUDY    68  60  75 SE5       29.90F HAZE
OKLAHOMA CITY  CLOUDY    64  61  90 SE17G26   29.83F

......IOWA............

CITY           SKY/WX    TMP DP  RH WIND       PRES   REMARKS
DES MOINES     CLOUDY    67  47  48 S12       29.88R
QUAD CITIES    MOCLDY    63  42  46 SE10      29.97S

......ILLINOIS........

CITY           SKY/WX    TMP DP  RH WIND       PRES   REMARKS
QUINCY         PTCLDY    64  48  56 SE8       29.98R
CHICAGO        PTCLDY    56  31  38 E7        30.06R



USA.gov is the U.S. government's official web portal to all federal, state and local government web resources and services.